Wind_Speed
10 10 10 10 9 9 9 8 8 8 8 9 9 9 10 10 10 11 11 11 11 12 12 12 13 13 14 14 15 15 15 15 16 16 16 17 17 17
10 10 10 9 9 9 9 9 9 9 9 9 10 10 10 10 10 10 11 12 12 12 12 13 14 14 15 15 16 16 16 17 17 17 17 19 19 19
9 10 10 9 9 9 9 9 9 10 10 11 12 12 12 11 12 12 12 12 13 13 14 14 15 16 16 16 16 17 17 18 18 18 18 19 19 20
10 10 9 9 9 9 9 9 10 11 12 11 12 13 13 13 13 14 14 14 14 15 15 15 15 16 16 16 17 17 18 18 18 19 19 20 20 20
11 11 10 10 10 10 10 11 11 12 12 12 12 13 13 14 14 15 15 15 15 16 15 15 16 16 16 17 18 18 18 19 19 20 20 20 20 20
12 12 12 12 12 12 12 12 12 12 12 13 13 14 15 15 15 16 16 16 16 17 16 16 16 17 17 18 18 19 19 20 20 21 21 21 21 21
14 13 13 13 13 13 14 14 14 14 14 14 14 15 15 15 16 16 16 16 17 17 17 17 18 18 19 19 20 20 21 21 21 22 23 23 23 23
15 15 14 14 14 14 15 15 15 15 15 16 16 16 17 17 17 18 18 18 18 19 19 19 19 19 20 20 21 22 23 24 24 24 25 25 25 25
16 16 16 16 16 16 17 17 17 18 18 18 18 18 18 19 19 20 20 20 20 21 22 22 22 22 21 21 22 24 25 26 26 27 27 27 28 27
18 18 18 18 18 18 19 19 19 19 20 20 19 20 20 20 21 21 22 22 22 23 24 24 24 25 25 25 25 26 27 28 28 29 29 29 29 29
20 20 20 20 20 20 20 21 21 21 21 21 22 22 23 23 23 23 23 23 24 24 25 26 26 26 27 27 28 28 29 29 29 29 30 30 30 30
22 22 22 22 22 22 22 22 22 22 23 23 23 24 25 25 25 26 26 26 26 26 27 28 28 29 29 29 29 29 29 30 30 31 31 31 30 30
24 24 24 23 23 23 23 23 24 24 25 25 25 25 25 25 26 27 27 27 27 28 29 30 30 30 30 30 30 30 31 31 31 31 32 31 31 31
24 25 25 25 25 25 25 26 26 27 27 27 26 26 27 27 27 28 28 29 30 30 30 31 31 31 31 32 32 32 32 32 32 32 32 32 32 32
26 26 26 26 27 27 28 27 27 28 28 28 28 28 28 29 29 30 31 31 30 31 31 31 31 32 32 32 32 32 32 31 32 31 31 31 32 33
27 27 28 28 28 29 29 29 29 29 29 29 29 30 30 31 30 30 31 32 32 32 32 32 31 31 31 31 31 31 32 32 32 32 32 32 33 34
30 30 29 29 30 30 30 30 30 30 30 30 31 31 32 32 32 32 32 33 33 32 32 32 32 31 31 30 30 30 31 32 33 33 32 32 33 34
32 32 32 31 30 30 30 31 31 31 31 32 32 32 32 33 33 33 33 33 34 33 33 32 32 31 31 31 30 30 30 31 31 32 32 33 33 34
33 33 34 33 32 32 32 32 32 32 32 32 32 32 33 33 34 34 33 34 33 32 32 32 32 32 31 31 31 31 31 31 32 32 32 33 33 34
35 35 35 35 34 34 33 33 33 33 33 33 34 34 34 34 34 34 34 34 33 32 32 32 32 32 32 32 32 33 33 33 33 33 33 34 34 34
36 37 37 36 36 36 35 35 35 34 34 34 34 34 35 35 35 35 34 34 33 32 32 32 32 33 33 32 32 32 32 33 33 33 34 34 34 35
38 38 37 37 37 37 37 37 36 36 35 35 35 35 36 36 36 35 35 34 33 33 33 33 33 33 33 33 32 32 32 33 34 34 34 35 35 35
39 39 38 38 38 38 38 37 37 36 36 36 37 37 36 36 36 35 35 34 34 34 35 34 34 34 34 34 34 33 34 34 35 35 35 36 36 36
Wind_Direction
278 277 276 273 267 267 264 267 269 270 273 276 278 283 285 283 285 286 281 278 276 275 274 274 276 276 275 274 274 275 275 274 276 275 273 273 270 273
279 278 276 270 267 265 261 264 267 268 269 274 277 280 283 285 289 289 287 281 280 279 277 275 275 277 274 273 273 274 274 275 274 276 275 277 276 276
278 277 274 268 267 262 260 264 267 270 269 271 274 277 280 282 283 285 285 284 282 281 280 279 277 278 277 276 275 275 274 275 275 277 278 278 280 278
276 276 271 269 266 264 265 268 270 272 271 272 274 276 278 281 283 283 283 283 283 283 284 283 281 280 278 275 274 274 274 274 276 277 278 279 282 280
274 273 268 267 266 268 271 271 271 275 274 272 273 274 277 282 285 285 284 281 281 283 283 284 282 281 280 278 275 274 274 274 277 278 279 281 281 279
270 271 270 268 266 269 273 274 275 275 274 275 277 279 281 284 285 285 283 280 279 281 282 283 283 283 282 279 275 275 276 277 279 279 280 281 279 278
268 270 270 267 267 269 270 271 274 275 277 278 281 281 283 284 286 284 282 281 281 280 278 277 278 280 281 279 278 279 279 279 280 280 280 280 279 278
266 267 268 266 266 269 271 271 273 276 277 278 279 281 282 284 285 284 282 282 282 280 278 278 279 280 281 281 281 281 281 280 280 281 281 281 280 280
265 266 268 268 268 270 272 271 273 276 277 279 281 282 282 282 283 282 282 281 281 281 279 279 278 279 281 283 283 283 282 282 282 281 280 280 281 280
264 265 266 268 271 272 272 273 275 276 276 277 280 281 281 282 282 281 280 279 279 279 279 279 279 279 280 281 283 283 283 283 284 283 282 282 280 280
266 267 268 270 271 272 272 273 274 275 276 278 279 280 281 282 283 282 282 280 279 278 279 279 280 281 281 281 282 283 284 284 284 283 283 282 280 280
266 267 269 270 271 271 271 273 275 276 276 278 279 280 281 282 282 282 281 281 280 279 279 280 281 281 282 283 283 283 283 284 284 283 283 282 281 281
267 267 267 268 269 270 270 272 273 275 276 277 278 280 282 282 282 283 283 283 282 282 281 281 281 282 282 283 284 283 282 284 284 283 282 281 281 281
266 268 268 268 269 269 270 272 272 273 274 276 278 280 281 282 282 283 283 282 282 283 283 282 282 281 281 282 283 283 283 284 285 284 283 282 282 282
266 267 268 269 271 271 272 273 274 274 275 276 278 280 281 282 282 281 282 283 284 284 284 283 283 283 283 283 283 283 282 283 284 284 284 284 283 283
267 268 268 269 271 272 272 273 274 275 275 276 278 279 281 282 283 283 282 282 284 285 285 285 285 286 284 283 282 282 281 282 282 282 284 285 285 285
266 268 270 271 272 272 273 272 274 275 276 277 278 279 281 282 282 282 283 283 284 284 284 285 285 285 285 285 284 283 283 283 283 284 284 285 286 287
266 268 270 271 273 274 275 274 274 275 277 278 279 280 281 281 281 282 282 283 284 284 284 284 283 283 284 285 285 285 285 284 284 285 285 286 286 287
266 268 269 271 272 273 274 275 276 275 276 278 279 280 281 281 281 281 282 283 283 283 283 283 282 282 282 282 283 283 283 284 286 287 288 287 287 287
266 267 268 269 271 273 273 274 275 275 276 277 278 279 281 281 281 282 282 283 282 282 281 282 282 282 282 281 281 282 282 283 285 287 287 288 288 288
266 267 267 268 270 271 272 272 274 275 276 277 278 279 280 281 282 282 282 282 280 280 280 281 281 282 282 283 283 283 283 284 286 287 288 288 289 290
265 266 266 267 268 269 270 271 271 273 274 276 277 278 279 280 282 282 281 279 279 279 279 279 279 280 282 283 283 282 283 285 286 288 289 291 291 290
266 265 265 266 267 268 269 270 270 272 274 276 277 278 279 280 281 281 279 277 278 279 279 278 278 280 281 282 283 283 284 285 287 289 291 292 292 291
Height
5813 5812 5812 5812 5811 5811 5811 5812 5812 5812 5812 5811 5811 5810 5810 5809 5809 5808 5807 5806 5806 5805 5805 5804 5804 5803 5803 5803 5802 5801 5800 5800 5799 5799 5798 5797 5797 5796
5810 5810 5809 5809 5809 5809 5809 5809 5809 5810 5809 5809 5808 5808 5807 5806 5806 5805 5804 5803 5803 5802 5801 5801 5800 5799 5799 5798 5798 5797 5797 5796 5795 5794 5793 5793 5792 5791
5807 5807 5807 5806 5806 5806 5806 5806 5806 5806 5806 5806 5805 5805 5804 5803 5803 5802 5801 5800 5799 5798 5797 5797 5796 5795 5794 5794 5793 5793 5792 5791 5790 5790 5789 5788 5787 5786
5804 5804 5804 5804 5804 5803 5803 5803 5803 5803 5803 5803 5802 5801 5800 5800 5799 5798 5797 5796 5795 5794 5793 5792 5791 5791 5790 5789 5788 5788 5787 5786 5785 5785 5784 5783 5782 5781
5801 5801 5801 5801 5801 5800 5800 5800 5800 5800 5799 5799 5799 5798 5797 5796 5795 5794 5793 5792 5791 5790 5789 5788 5787 5786 5785 5784 5784 5783 5782 5781 5780 5779 5778 5777 5776 5775
5798 5798 5797 5797 5797 5797 5797 5797 5796 5796 5796 5796 5795 5794 5793 5792 5791 5790 5789 5788 5787 5786 5785 5784 5782 5781 5780 5779 5778 5777 5776 5776 5775 5774 5773 5772 5770 5769
5794 5794 5794 5794 5794 5793 5793 5793 5793 5792 5792 5791 5791 5790 5789 5788 5787 5786 5785 5784 5783 5782 5780 5779 5778 5777 5775 5774 5773 5772 5771 5770 5769 5768 5767 5765 5764 5763
5790 5790 5790 5790 5789 5789 5789 5789 5789 5788 5788 5787 5786 5785 5784 5783 5782 5781 5780 5779 5778 5777 5776 5774 5773 5772 5770 5769 5768 5766 5765 5764 5762 5761 5760 5758 5757 5756
5785 5785 5785 5785 5785 5785 5784 5784 5784 5783 5783 5782 5781 5780 5779 5778 5777 5776 5774 5773 5772 5771 5770 5768 5767 5766 5764 5763 5761 5760 5758 5757 5755 5753 5752 5750 5749 5748
5780 5780 5780 5780 5780 5779 5779 5778 5778 5777 5777 5776 5775 5774 5773 5772 5771 5770 5768 5767 5766 5764 5763 5762 5760 5759 5757 5756 5754 5752 5751 5749 5747 5745 5743 5742 5740 5739
5774 5774 5774 5774 5774 5773 5773 5772 5772 5771 5770 5770 5769 5768 5766 5765 5764 5763 5762 5760 5758 5757 5755 5754 5753 5751 5749 5748 5746 5744 5742 5740 5738 5736 5734 5732 5731 5729
5768 5768 5768 5767 5767 5766 5766 5766 5765 5765 5764 5763 5762 5761 5759 5758 5757 5755 5754 5752 5751 5749 5747 5746 5744 5742 5741 5739 5737 5735 5733 5731 5729 5727 5725 5723 5721 5719
5760 5761 5760 5760 5760 5760 5759 5759 5758 5757 5757 5756 5755 5753 5752 5751 5749 5748 5746 5744 5743 5741 5739 5737 5735 5733 5731 5729 5727 5725 5723 5721 5719 5717 5714 5713 5711 5709
5753 5753 5753 5752 5752 5752 5751 5751 5750 5750 5749 5748 5746 5745 5744 5743 5741 5739 5738 5736 5734 5732 5730 5727 5725 5723 5721 5719 5717 5715 5713 5710 5708 5706 5704 5703 5701 5699
5745 5745 5745 5744 5744 5743 5743 5742 5742 5741 5740 5739 5738 5737 5735 5734 5732 5730 5728 5726 5724 5722 5720 5717 5715 5713 5711 5708 5706 5704 5702 5700 5698 5696 5694 5692 5691 5689
5736 5736 5736 5736 5735 5735 5734 5733 5732 5732 5731 5730 5729 5728 5726 5724 5722 5721 5719 5717 5715 5712 5709 5707 5705 5702 5700 5698 5696 5694 5692 5691 5689 5686 5684 5682 5680 5678
5726 5726 5726 5726 5726 5725 5725 5724 5723 5722 5721 5720 5719 5718 5716 5714 5712 5710 5708 5706 5704 5702 5700 5697 5694 5692 5690 5688 5686 5684 5682 5680 5678 5676 5674 5673 5670 5667
5716 5717 5716 5716 5716 5715 5714 5714 5713 5712 5711 5710 5708 5707 5705 5703 5702 5700 5697 5696 5694 5692 5689 5687 5685 5683 5681 5679 5677 5675 5673 5671 5668 5666 5664 5662 5660 5657
5705 5706 5706 5705 5705 5704 5704 5703 5702 5701 5700 5699 5698 5696 5694 5693 5691 5689 5687 5685 5683 5681 5679 5676 5674 5673 5671 5670 5668 5665 5663 5661 5659 5657 5654 5652 5650 5647
5694 5694 5694 5694 5694 5693 5693 5692 5691 5690 5689 5688 5686 5685 5683 5682 5680 5678 5676 5674 5672 5670 5668 5666 5664 5663 5661 5660 5658 5656 5653 5652 5650 5647 5645 5642 5639 5636
5682 5682 5682 5682 5682 5681 5681 5680 5680 5679 5678 5676 5675 5674 5672 5670 5668 5667 5665 5663 5661 5659 5658 5656 5654 5653 5651 5649 5648 5646 5644 5641 5639 5637 5634 5632 5629 5626
5669 5669 5669 5669 5669 5668 5668 5668 5668 5667 5666 5664 5663 5662 5660 5658 5657 5655 5653 5652 5650 5649 5647 5646 5644 5642 5640 5639 5637 5636 5634 5631 5629 5626 5623 5621 5618 5615
5655 5655 5655 5655 5655 5655 5655 5655 5655 5654 5653 5652 5651 5650 5648 5646 5645 5643 5641 5640 5639 5638 5636 5635 5633 5631 5630 5628 5626 5625 5623 5620 5618 5615 5613 5609 5607 5604